,,,PA_Meas_PMT16A,,PR_Meas_QMR101_102,,RH_Meas_QMH101,,SR_Meas_QMS101,,TA_Meas_QMH101,,GenWind,,GenWind,
date,time,status,PA,status,PR,status,RH,status,SR,status,TA,status,DirAvg,status,SpdAvg,
2010-04-23, 00:00:04,VALID,1001.8,VALID,0,VALID,86.352,VALID,0,VALID,25.6707,VALID,167,VALID,1.09336,
2010-04-23, 00:01:04,VALID,1001.78,VALID,0,VALID,86.3978,VALID,0,VALID,25.6707,VALID,168,VALID,0.897266,
2010-04-23, 00:02:04,VALID,1001.78,VALID,0,VALID,86.4589,VALID,0,VALID,25.6726,VALID,168,VALID,0.806641,
2010-04-23, 00:03:04,VALID,1001.77,VALID,0,VALID,86.5657,VALID,0,VALID,25.6531,VALID,168,VALID,0.229297,
2010-04-23, 00:04:04,VALID,1001.75,VALID,0,VALID,87.2447,VALID,0,VALID,25.575,VALID,283,VALID,0.751562,
2010-04-23, 00:05:04,VALID,1001.74,VALID,0,VALID,87.7025,VALID,0,VALID,25.4774,VALID,306,VALID,0.491016,
2010-04-23, 00:06:04,VALID,1001.7,VALID,0,VALID,88.3434,VALID,0,VALID,25.3602,VALID,306,VALID,0.650781,
2010-04-23, 00:07:04,VALID,1001.75,VALID,0,VALID,89.0834,VALID,0,VALID,25.2841,VALID,306,VALID,0.720703,
2010-04-23, 00:08:04,VALID,1001.74,VALID,0,VALID,89.5107,VALID,0,VALID,25.204,VALID,306,VALID,0.774219,
2010-04-23, 00:09:04,VALID,1001.71,VALID,0,VALID,89.8769,VALID,0,VALID,25.165,VALID,305,VALID,0.846094,
2010-04-23, 00:10:04,VALID,1001.69,VALID,0,VALID,90.0906,VALID,0,VALID,25.1474,VALID,304,VALID,0.684375,
2010-04-23, 00:11:04,VALID,1001.68,VALID,0,VALID,90.2889,VALID,0,VALID,25.0869,VALID,304,VALID,0.748438,
2010-04-23, 00:12:04,VALID,1001.67,VALID,0,VALID,90.3423,VALID,0,VALID,25.0869,VALID,304,VALID,0.396484,
2010-04-23, 00:13:04,VALID,1001.66,VALID,0,VALID,90.3957,VALID,0,VALID,25.0479,VALID,304,VALID,0.309375,
2010-04-23, 00:14:04,VALID,1001.61,VALID,0,VALID,90.3957,VALID,0,VALID,25.0088,VALID,304,VALID,0,
2010-04-23, 00:15:04,VALID,1001.57,VALID,0,VALID,90.4415,VALID,0,VALID,24.9893,VALID,304,VALID,0,
2010-04-23, 00:16:04,VALID,1001.55,VALID,0,VALID,90.5102,VALID,0,VALID,24.9698,VALID,304,VALID,0,
2010-04-23, 00:17:04,VALID,1001.51,VALID,0,VALID,90.6551,VALID,0,VALID,24.9289,VALID,304,VALID,0,
2010-04-23, 00:18:04,VALID,1001.54,VALID,0,VALID,90.6551,VALID,0,VALID,24.9093,VALID,304,VALID,0,
2010-04-23, 00:19:04,VALID,1001.51,VALID,0,VALID,90.6094,VALID,0,VALID,24.8703,VALID,304,VALID,0,
2010-04-23, 00:20:04,VALID,1001.5,VALID,0,VALID,90.7162,VALID,0,VALID,24.8313,VALID,304,VALID,0,
2010-04-23, 00:21:04,VALID,1001.5,VALID,0,VALID,90.9298,VALID,0.112286,VALID,24.8508,VALID,304,VALID,0,
2010-04-23, 00:22:04,VALID,1001.49,VALID,0,VALID,91.0137,VALID,0,VALID,24.8508,VALID,304,VALID,0,
2010-04-23, 00:23:04,VALID,1001.52,VALID,0,VALID,91.0443,VALID,0,VALID,24.8703,VALID,304,VALID,0,
2010-04-23, 00:24:04,VALID,1001.47,VALID,0,VALID,90.9756,VALID,0,VALID,24.8508,VALID,304,VALID,0,
2010-04-23, 00:25:04,VALID,1001.46,VALID,0,VALID,91.0824,VALID,0,VALID,24.8703,VALID,304,VALID,0,
2010-04-23, 00:26:04,VALID,1001.45,VALID,0,VALID,90.884,VALID,0,VALID,24.8313,VALID,304,VALID,0,
2010-04-23, 00:27:04,VALID,1001.41,VALID,0,VALID,91.0519,VALID,0,VALID,24.8313,VALID,304,VALID,0,
2010-04-23, 00:28:04,VALID,1001.37,VALID,0,VALID,91.2045,VALID,0.112286,VALID,24.8313,VALID,304,VALID,0,
2010-04-23, 00:29:04,VALID,1001.34,VALID,0,VALID,91.2503,VALID,0,VALID,24.8313,VALID,304,VALID,0,
2010-04-23, 00:30:04,VALID,1001.3,VALID,0,VALID,91.2426,VALID,0,VALID,24.8508,VALID,304,VALID,0,
2010-04-23, 00:31:04,VALID,1001.26,VALID,0,VALID,91.1511,VALID,0.112286,VALID,24.7922,VALID,304,VALID,0,
2010-04-23, 00:32:04,VALID,1001.28,VALID,0,VALID,91.1663,VALID,0,VALID,24.7727,VALID,304,VALID,0,
2010-04-23, 00:33:04,VALID,1001.24,VALID,0,VALID,91.2884,VALID,0.112286,VALID,24.7922,VALID,304,VALID,0,
2010-04-23, 00:34:04,VALID,1001.24,VALID,0,VALID,91.3647,VALID,0,VALID,24.7922,VALID,304,VALID,0,
2010-04-23, 00:35:04,VALID,1001.26,VALID,0,VALID,91.3418,VALID,0.112286,VALID,24.7922,VALID,304,VALID,0,
2010-04-23, 00:36:04,VALID,1001.23,VALID,0,VALID,91.3876,VALID,0.112286,VALID,24.8313,VALID,304,VALID,0,
2010-04-23, 00:37:04,VALID,1001.21,VALID,0,VALID,91.3037,VALID,0,VALID,24.7922,VALID,304,VALID,0,
2010-04-23, 00:38:04,VALID,1001.21,VALID,0,VALID,91.3037,VALID,0,VALID,24.7922,VALID,304,VALID,0,
2010-04-23, 00:39:04,VALID,1001.23,VALID,0,VALID,91.4028,VALID,0.112286,VALID,24.7922,VALID,304,VALID,0,
2010-04-23, 00:40:04,VALID,1001.21,VALID,0,VALID,91.4334,VALID,0.112286,VALID,24.8117,VALID,304,VALID,0,
2010-04-23, 00:41:04,VALID,1001.2,VALID,0,VALID,91.38,VALID,0.112286,VALID,24.8703,VALID,259,VALID,0,
2010-04-23, 00:42:04,VALID,1001.17,VALID,0,VALID,91.2045,VALID,0,VALID,24.9484,VALID,232,VALID,0.704687,
2010-04-23, 00:43:04,VALID,1001.2,VALID,0,VALID,90.7391,VALID,0,VALID,25.0655,VALID,233,VALID,0.0480469,
2010-04-23, 00:44:04,VALID,1001.21,VALID,0,VALID,90.3881,VALID,0.112286,VALID,25.085,VALID,233,VALID,0,
2010-04-23, 00:45:04,VALID,1001.15,VALID,0,VALID,90.2584,VALID,0,VALID,25.085,VALID,233,VALID,0.059375,
2010-04-23, 00:46:04,VALID,1001.14,VALID,0,VALID,90.1974,VALID,0,VALID,25.085,VALID,233,VALID,0,
2010-04-23, 00:47:04,VALID,1001.14,VALID,0,VALID,90.1821,VALID,0,VALID,25.1241,VALID,233,VALID,0.0472656,
2010-04-23, 00:48:04,VALID,1001.12,VALID,0,VALID,89.9609,VALID,0,VALID,25.2021,VALID,196,VALID,0.7375,
2010-04-23, 00:49:04,VALID,1001.1,VALID,0,VALID,89.6251,VALID,0,VALID,25.2802,VALID,193,VALID,1.02266,
2010-04-23, 00:50:04,VALID,1001.08,VALID,0,VALID,89.1445,VALID,0,VALID,25.3778,VALID,200,VALID,0.714063,
2010-04-23, 00:51:04,VALID,1001.08,VALID,0,VALID,88.6104,VALID,0,VALID,25.4364,VALID,192,VALID,1.10703,
2010-04-23, 00:52:04,VALID,1001.06,VALID,0,VALID,88.0687,VALID,0,VALID,25.4735,VALID,186,VALID,1.15547,
2010-04-23, 00:53:04,VALID,1001.04,VALID,0,VALID,87.4431,VALID,0.112286,VALID,25.5535,VALID,186,VALID,1.46758,
2010-04-23, 00:54:04,VALID,1001.02,VALID,0,VALID,87.0616,VALID,0,VALID,25.6316,VALID,168,VALID,1.51016,
2010-04-23, 00:55:04,VALID,1001.03,VALID,0,VALID,86.6877,VALID,0,VALID,25.6316,VALID,164,VALID,1.37852,
2010-04-23, 00:56:04,VALID,1001.03,VALID,0,VALID,86.6496,VALID,0,VALID,25.6707,VALID,171,VALID,1.35195,
2010-04-23, 00:57:04,VALID,1001.01,VALID,0,VALID,86.642,VALID,0.112286,VALID,25.6902,VALID,189,VALID,1.13203,
2010-04-23, 00:58:04,VALID,1000.99,VALID,0,VALID,86.4207,VALID,0.112286,VALID,25.6902,VALID,181,VALID,1.40117,
2010-04-23, 00:59:04,VALID,1001,VALID,0,VALID,86.2834,VALID,0.112286,VALID,25.6882,VALID,167,VALID,1.0125,
2010-04-23, 01:00:04,VALID,1000.96,VALID,0,VALID,86.1613,VALID,0,VALID,25.6707,VALID,166,VALID,1.2875,
2010-04-23, 01:01:04,VALID,1000.97,VALID,0,VALID,86.2757,VALID,0,VALID,25.6902,VALID,158,VALID,1.03359,
2010-04-23, 01:02:04,VALID,1000.96,VALID,0,VALID,86.4283,VALID,0,VALID,25.6902,VALID,156,VALID,0.526172,
2010-04-23, 01:03:04,VALID,1000.96,VALID,0,VALID,86.5428,VALID,0,VALID,25.6511,VALID,93,VALID,0.639063,
2010-04-23, 01:04:04,VALID,1000.92,VALID,0,VALID,86.9319,VALID,0.112286,VALID,25.573,VALID,127,VALID,0.747656,
2010-04-23, 01:05:04,VALID,1000.91,VALID,0,VALID,87.1913,VALID,0,VALID,25.534,VALID,127,VALID,0.501172,
2010-04-23, 01:06:04,VALID,1000.91,VALID,0,VALID,87.4812,VALID,0,VALID,25.454,VALID,127,VALID,0.569922,
2010-04-23, 01:07:04,VALID,1000.88,VALID,0,VALID,87.7635,VALID,0.112286,VALID,25.4364,VALID,157,VALID,0.533984,
2010-04-23, 01:08:04,VALID,1000.89,VALID,0,VALID,87.9237,VALID,0,VALID,25.3973,VALID,157,VALID,0.322266,
2010-04-23, 01:09:04,VALID,1000.88,VALID,0,VALID,88.0611,VALID,0,VALID,25.3778,VALID,157,VALID,0.219141,
2010-04-23, 01:10:04,VALID,1000.84,VALID,0,VALID,88.2213,VALID,0.112286,VALID,25.3583,VALID,156,VALID,0.352344,
2010-04-23, 01:11:04,VALID,1000.84,VALID,0,VALID,88.351,VALID,0,VALID,25.3193,VALID,98,VALID,0.524609,
2010-04-23, 01:12:04,VALID,1000.8,VALID,0,VALID,88.5646,VALID,0,VALID,25.2802,VALID,98,VALID,0,
2010-04-23, 01:13:04,VALID,1000.8,VALID,0,VALID,88.7096,VALID,0,VALID,25.2607,VALID,98,VALID,0,
2010-04-23, 01:14:04,VALID,1000.76,VALID,0,VALID,88.7935,VALID,0,VALID,25.2021,VALID,98,VALID,0,
2010-04-23, 01:15:04,VALID,1000.72,VALID,0,VALID,88.9614,VALID,0,VALID,25.1631,VALID,98,VALID,0,
2010-04-23, 01:16:04,VALID,1000.71,VALID,0,VALID,89.0606,VALID,0,VALID,25.1436,VALID,98,VALID,0,
2010-04-23, 01:17:04,VALID,1000.68,VALID,0,VALID,89.2589,VALID,0,VALID,25.085,VALID,98,VALID,0,
2010-04-23, 01:18:04,VALID,1000.67,VALID,0,VALID,89.4191,VALID,0,VALID,25.0655,VALID,98,VALID,0,
2010-04-23, 01:19:04,VALID,1000.66,VALID,0,VALID,89.6328,VALID,0,VALID,25.005,VALID,32,VALID,0.169141,
2010-04-23, 01:20:04,VALID,1000.64,VALID,0,VALID,89.854,VALID,0,VALID,25.0069,VALID,354,VALID,0.605859,
2010-04-23, 01:21:04,VALID,1000.64,VALID,0,VALID,90.0219,VALID,0,VALID,25.0265,VALID,341,VALID,0.473437,
2010-04-23, 01:22:04,VALID,1000.64,VALID,0,VALID,90.0906,VALID,0,VALID,25.0069,VALID,341,VALID,0.269531,
2010-04-23, 01:23:04,VALID,1000.63,VALID,0,VALID,90.1058,VALID,0,VALID,24.9874,VALID,341,VALID,0,
2010-04-23, 01:24:04,VALID,1000.64,VALID,0,VALID,90.205,VALID,0,VALID,24.9874,VALID,341,VALID,0,
2010-04-23, 01:25:04,VALID,1000.65,VALID,0,VALID,90.2508,VALID,0,VALID,24.9874,VALID,341,VALID,0,
2010-04-23, 01:26:04,VALID,1000.67,VALID,0,VALID,90.2584,VALID,0.112286,VALID,24.9874,VALID,341,VALID,0,
2010-04-23, 01:27:04,VALID,1000.67,VALID,0,VALID,90.2813,VALID,0,VALID,24.9679,VALID,341,VALID,0,
2010-04-23, 01:28:04,VALID,1000.65,VALID,0,VALID,90.35,VALID,0,VALID,24.9465,VALID,341,VALID,0,
2010-04-23, 01:29:04,VALID,1000.66,VALID,0,VALID,90.3728,VALID,0.112286,VALID,24.9465,VALID,341,VALID,0,
2010-04-23, 01:30:04,VALID,1000.64,VALID,0,VALID,90.3194,VALID,0,VALID,24.9874,VALID,341,VALID,0,
2010-04-23, 01:31:04,VALID,1000.66,VALID,0,VALID,90.2584,VALID,0,VALID,25.0069,VALID,341,VALID,0,
2010-04-23, 01:32:04,VALID,1000.64,VALID,0,VALID,90.1134,VALID,0,VALID,25.0069,VALID,341,VALID,0,
2010-04-23, 01:33:04,VALID,1000.65,VALID,0,VALID,90.0448,VALID,0,VALID,25.0479,VALID,341,VALID,0,
2010-04-23, 01:34:04,VALID,1000.68,VALID,0,VALID,90.0448,VALID,0,VALID,25.0479,VALID,341,VALID,0,
2010-04-23, 01:35:04,VALID,1000.66,VALID,0,VALID,89.999,VALID,0,VALID,25.0479,VALID,341,VALID,0,
2010-04-23, 01:36:04,VALID,1000.65,VALID,0,VALID,89.9914,VALID,0,VALID,25.0674,VALID,341,VALID,0,
2010-04-23, 01:37:04,VALID,1000.66,VALID,0,VALID,89.9761,VALID,0,VALID,25.0869,VALID,341,VALID,0,
2010-04-23, 01:38:04,VALID,1000.7,VALID,0,VALID,89.8159,VALID,0,VALID,25.0869,VALID,341,VALID,0,
2010-04-23, 01:39:04,VALID,1000.71,VALID,0,VALID,89.8235,VALID,0,VALID,25.0674,VALID,341,VALID,0,
2010-04-23, 01:40:04,VALID,1000.69,VALID,0,VALID,89.9151,VALID,0,VALID,25.0674,VALID,341,VALID,0,
2010-04-23, 01:41:04,VALID,1000.69,VALID,0,VALID,89.9761,VALID,0,VALID,25.0479,VALID,341,VALID,0,
2010-04-23, 01:42:04,VALID,1000.69,VALID,0,VALID,90.0371,VALID,0,VALID,25.0284,VALID,341,VALID,0,
2010-04-23, 01:43:04,VALID,1000.66,VALID,0,VALID,90.1363,VALID,0,VALID,25.0284,VALID,341,VALID,0,
2010-04-23, 01:44:04,VALID,1000.65,VALID,0,VALID,90.1897,VALID,0,VALID,25.0284,VALID,341,VALID,0,
2010-04-23, 01:45:04,VALID,1000.64,VALID,0,VALID,90.266,VALID,0,VALID,25.0284,VALID,341,VALID,0,
2010-04-23, 01:46:04,VALID,1000.64,VALID,0,VALID,90.2737,VALID,0,VALID,25.0284,VALID,341,VALID,0,
2010-04-23, 01:47:04,VALID,1000.67,VALID,0,VALID,90.2508,VALID,0,VALID,25.0069,VALID,341,VALID,0,
2010-04-23, 01:48:04,VALID,1000.63,VALID,0,VALID,90.2889,VALID,0,VALID,25.0069,VALID,341,VALID,0,
2010-04-23, 01:49:04,VALID,1000.64,VALID,0,VALID,90.3805,VALID,0,VALID,24.9874,VALID,341,VALID,0,
2010-04-23, 01:50:04,VALID,1000.63,VALID,0,VALID,90.4491,VALID,0.112286,VALID,24.966,VALID,341,VALID,0,
2010-04-23, 01:51:04,VALID,1000.61,VALID,0,VALID,90.4263,VALID,0.112286,VALID,24.9679,VALID,341,VALID,0,
2010-04-23, 01:52:04,VALID,1000.57,VALID,0,VALID,90.5331,VALID,0,VALID,24.9679,VALID,341,VALID,0,
2010-04-23, 01:53:04,VALID,1000.59,VALID,0,VALID,90.6246,VALID,0.112286,VALID,24.9465,VALID,341,VALID,0,
2010-04-23, 01:54:04,VALID,1000.56,VALID,0,VALID,90.7009,VALID,0,VALID,24.9484,VALID,341,VALID,0,
2010-04-23, 01:55:04,VALID,1000.54,VALID,0,VALID,90.7009,VALID,0,VALID,24.9484,VALID,341,VALID,0,
2010-04-23, 01:56:04,VALID,1000.56,VALID,0,VALID,90.7314,VALID,0.112286,VALID,24.9484,VALID,341,VALID,0,
2010-04-23, 01:57:04,VALID,1000.53,VALID,0,VALID,90.7772,VALID,0,VALID,24.9289,VALID,341,VALID,0,
2010-04-23, 01:58:04,VALID,1000.53,VALID,0,VALID,90.7925,VALID,0,VALID,24.9484,VALID,341,VALID,0,
2010-04-23, 01:59:04,VALID,1000.54,VALID,0,VALID,90.7543,VALID,0.112286,VALID,24.9289,VALID,341,VALID,0,
2010-04-23, 02:00:04,VALID,1000.57,VALID,0,VALID,90.7772,VALID,0.112286,VALID,24.9289,VALID,341,VALID,0,
2010-04-23, 02:01:04,VALID,1000.56,VALID,0,VALID,90.884,VALID,0.112286,VALID,24.9074,VALID,341,VALID,0,
2010-04-23, 02:02:04,VALID,1000.52,VALID,0,VALID,90.9527,VALID,0,VALID,24.9308,VALID,341,VALID,0,
2010-04-23, 02:03:04,VALID,1000.5,VALID,0,VALID,90.9832,VALID,0,VALID,24.9093,VALID,341,VALID,0,
2010-04-23, 02:04:04,VALID,1000.46,VALID,0,VALID,90.9985,VALID,0,VALID,24.9308,VALID,341,VALID,0,
2010-04-23, 02:05:04,VALID,1000.42,VALID,0,VALID,90.9756,VALID,0,VALID,24.9308,VALID,341,VALID,0,
2010-04-23, 02:06:04,VALID,1000.38,VALID,0,VALID,91.0824,VALID,0,VALID,24.9112,VALID,341,VALID,0,
2010-04-23, 02:07:04,VALID,1000.35,VALID,0,VALID,91.1434,VALID,0,VALID,24.9112,VALID,341,VALID,0,
2010-04-23, 02:08:04,VALID,1000.34,VALID,0,VALID,91.0824,VALID,0,VALID,24.8917,VALID,341,VALID,0,
2010-04-23, 02:09:04,VALID,1000.31,VALID,0,VALID,91.0061,VALID,0,VALID,24.8917,VALID,341,VALID,0,
2010-04-23, 02:10:04,VALID,1000.33,VALID,0,VALID,91.0214,VALID,0,VALID,24.8508,VALID,341,VALID,0,
2010-04-23, 02:11:04,VALID,1000.34,VALID,0,VALID,90.9222,VALID,0,VALID,24.8117,VALID,341,VALID,0,
2010-04-23, 02:12:04,VALID,1000.36,VALID,0,VALID,90.968,VALID,0,VALID,24.7941,VALID,341,VALID,0,
2010-04-23, 02:13:04,VALID,1000.38,VALID,0,VALID,91.1816,VALID,0,VALID,24.7746,VALID,341,VALID,0,
2010-04-23, 02:14:04,VALID,1000.37,VALID,0,VALID,91.1587,VALID,0,VALID,24.7551,VALID,341,VALID,0,
2010-04-23, 02:15:04,VALID,1000.39,VALID,0,VALID,91.1434,VALID,0,VALID,24.7142,VALID,341,VALID,0,
2010-04-23, 02:16:04,VALID,1000.41,VALID,0,VALID,91.3189,VALID,0,VALID,24.716,VALID,341,VALID,0,
2010-04-23, 02:17:04,VALID,1000.4,VALID,0,VALID,91.502,VALID,0,VALID,24.7356,VALID,341,VALID,0,
2010-04-23, 02:18:04,VALID,1000.43,VALID,0,VALID,91.4791,VALID,0,VALID,24.7746,VALID,341,VALID,0,
2010-04-23, 02:19:04,VALID,1000.46,VALID,0,VALID,91.5097,VALID,0,VALID,24.7337,VALID,341,VALID,0,
2010-04-23, 02:20:04,VALID,1000.47,VALID,0,VALID,91.5554,VALID,0,VALID,24.7551,VALID,341,VALID,0,
2010-04-23, 02:21:04,VALID,1000.45,VALID,0,VALID,91.5707,VALID,0,VALID,24.7551,VALID,341,VALID,0,
2010-04-23, 02:22:04,VALID,1000.48,VALID,0,VALID,91.6241,VALID,0,VALID,24.7356,VALID,341,VALID,0,
2010-04-23, 02:23:04,VALID,1000.49,VALID,0,VALID,91.647,VALID,0,VALID,24.7356,VALID,341,VALID,0,
2010-04-23, 02:24:04,VALID,1000.52,VALID,0,VALID,91.6394,VALID,0,VALID,24.7356,VALID,341,VALID,0,
2010-04-23, 02:25:04,VALID,1000.5,VALID,0,VALID,91.6394,VALID,0,VALID,24.6946,VALID,341,VALID,0,
2010-04-23, 02:26:04,VALID,1000.48,VALID,0,VALID,91.6623,VALID,0,VALID,24.716,VALID,341,VALID,0,
2010-04-23, 02:27:04,VALID,1000.46,VALID,0,VALID,91.6699,VALID,0,VALID,24.6946,VALID,341,VALID,0,
2010-04-23, 02:28:04,VALID,1000.47,VALID,0,VALID,91.7385,VALID,0,VALID,24.7142,VALID,341,VALID,0,
2010-04-23, 02:29:04,VALID,1000.45,VALID,0,VALID,91.7691,VALID,0,VALID,24.7356,VALID,341,VALID,0,
2010-04-23, 02:30:04,VALID,1000.46,VALID,0,VALID,91.7691,VALID,0,VALID,24.7356,VALID,341,VALID,0,
2010-04-23, 02:31:04,VALID,1000.45,VALID,0,VALID,91.7996,VALID,0,VALID,24.7551,VALID,341,VALID,0,
2010-04-23, 02:32:04,VALID,1000.43,VALID,0,VALID,91.7843,VALID,0,VALID,24.7727,VALID,341,VALID,0,
2010-04-23, 02:33:04,VALID,1000.48,VALID,0,VALID,91.7309,VALID,0,VALID,24.7922,VALID,341,VALID,0,
2010-04-23, 02:34:04,VALID,1000.49,VALID,0,VALID,91.7309,VALID,0,VALID,24.7922,VALID,341,VALID,0,
2010-04-23, 02:35:04,VALID,1000.44,VALID,0,VALID,91.6165,VALID,0,VALID,24.8117,VALID,341,VALID,0,
2010-04-23, 02:36:04,VALID,1000.48,VALID,0,VALID,91.4715,VALID,0,VALID,24.7922,VALID,341,VALID,0,
2010-04-23, 02:37:04,VALID,1000.48,VALID,0,VALID,91.38,VALID,0,VALID,24.7727,VALID,341,VALID,0,
2010-04-23, 02:38:04,VALID,1000.48,VALID,0,VALID,91.3952,VALID,0,VALID,24.7727,VALID,341,VALID,0,
2010-04-23, 02:39:04,VALID,1000.47,VALID,0,VALID,91.5249,VALID,0,VALID,24.7318,VALID,341,VALID,0,
2010-04-23, 02:40:04,VALID,1000.49,VALID,0,VALID,91.5783,VALID,0,VALID,24.7922,VALID,341,VALID,0,
2010-04-23, 02:41:04,VALID,1000.5,VALID,0,VALID,91.5707,VALID,0,VALID,24.8117,VALID,341,VALID,0,
2010-04-23, 02:42:04,VALID,1000.55,VALID,0,VALID,91.441,VALID,0,VALID,24.7903,VALID,341,VALID,0,
2010-04-23, 02:43:04,VALID,1000.55,VALID,0,VALID,91.1053,VALID,0,VALID,24.7318,VALID,341,VALID,0,
2010-04-23, 02:44:04,VALID,1000.56,VALID,0,VALID,91.1053,VALID,0.112286,VALID,24.7337,VALID,341,VALID,0,
2010-04-23, 02:45:04,VALID,1000.6,VALID,0,VALID,91.2274,VALID,0,VALID,24.6946,VALID,341,VALID,0,
2010-04-23, 02:46:04,VALID,1000.59,VALID,0,VALID,91.2579,VALID,0,VALID,24.6556,VALID,341,VALID,0,
2010-04-23, 02:47:04,VALID,1000.58,VALID,0,VALID,91.3723,VALID,0,VALID,24.6575,VALID,341,VALID,0,
2010-04-23, 02:48:04,VALID,1000.61,VALID,0,VALID,91.5478,VALID,0,VALID,24.6575,VALID,341,VALID,0,
2010-04-23, 02:49:04,VALID,1000.61,VALID,0,VALID,91.5783,VALID,0,VALID,24.6361,VALID,341,VALID,0,
2010-04-23, 02:50:04,VALID,1000.59,VALID,0,VALID,91.6546,VALID,0,VALID,24.6575,VALID,341,VALID,0,
2010-04-23, 02:51:04,VALID,1000.58,VALID,0,VALID,91.6165,VALID,0,VALID,24.638,VALID,341,VALID,0,
2010-04-23, 02:52:04,VALID,1000.56,VALID,0,VALID,91.5936,VALID,0,VALID,24.6184,VALID,341,VALID,0,
2010-04-23, 02:53:04,VALID,1000.59,VALID,0,VALID,91.6928,VALID,0,VALID,24.5989,VALID,341,VALID,0,
2010-04-23, 02:54:04,VALID,1000.59,VALID,0,VALID,91.792,VALID,0,VALID,24.6184,VALID,341,VALID,0,
2010-04-23, 02:55:04,VALID,1000.6,VALID,0,VALID,91.7309,VALID,0,VALID,24.638,VALID,341,VALID,0,
2010-04-23, 02:56:04,VALID,1000.62,VALID,0,VALID,91.6317,VALID,0,VALID,24.638,VALID,341,VALID,0,
2010-04-23, 02:57:04,VALID,1000.62,VALID,0,VALID,91.5173,VALID,0,VALID,24.5989,VALID,341,VALID,0,
2010-04-23, 02:58:04,VALID,1000.63,VALID,0,VALID,91.586,VALID,0,VALID,24.5775,VALID,341,VALID,0,
2010-04-23, 02:59:04,VALID,1000.64,VALID,0,VALID,91.6012,VALID,0,VALID,24.5989,VALID,341,VALID,0,
2010-04-23, 03:00:04,VALID,1000.62,VALID,0,VALID,91.5554,VALID,0,VALID,24.5794,VALID,341,VALID,0,
2010-04-23, 03:01:04,VALID,1000.66,VALID,0,VALID,91.5478,VALID,0,VALID,24.5794,VALID,341,VALID,0,
2010-04-23, 03:02:04,VALID,1000.65,VALID,0,VALID,91.5554,VALID,0,VALID,24.5794,VALID,341,VALID,0,
2010-04-23, 03:03:04,VALID,1000.65,VALID,0,VALID,91.4486,VALID,0,VALID,24.5599,VALID,341,VALID,0,
2010-04-23, 03:04:04,VALID,1000.69,VALID,0,VALID,91.4028,VALID,0,VALID,24.5599,VALID,341,VALID,0,
2010-04-23, 03:05:04,VALID,1000.71,VALID,0,VALID,91.3952,VALID,0,VALID,24.519,VALID,341,VALID,0,
2010-04-23, 03:06:04,VALID,1000.67,VALID,0,VALID,91.3952,VALID,0,VALID,24.5599,VALID,341,VALID,0,
2010-04-23, 03:07:04,VALID,1000.67,VALID,0,VALID,91.38,VALID,0,VALID,24.5599,VALID,341,VALID,0,
2010-04-23, 03:08:04,VALID,1000.67,VALID,0,VALID,91.4563,VALID,0,VALID,24.5794,VALID,341,VALID,0,
2010-04-23, 03:09:04,VALID,1000.7,VALID,0,VALID,91.441,VALID,0,VALID,24.558,VALID,341,VALID,0,
2010-04-23, 03:10:04,VALID,1000.69,VALID,0,VALID,91.3952,VALID,0,VALID,24.5599,VALID,341,VALID,0,
2010-04-23, 03:11:04,VALID,1000.68,VALID,0,VALID,91.3494,VALID,0,VALID,24.5404,VALID,341,VALID,0,
2010-04-23, 03:12:04,VALID,1000.69,VALID,0,VALID,91.4715,VALID,0,VALID,24.5404,VALID,341,VALID,0,
2010-04-23, 03:13:04,VALID,1000.69,VALID,0,VALID,91.5326,VALID,0,VALID,24.5599,VALID,341,VALID,0,
2010-04-23, 03:14:04,VALID,1000.68,VALID,0,VALID,91.3266,VALID,0,VALID,24.5404,VALID,341,VALID,0,
2010-04-23, 03:15:04,VALID,1000.68,VALID,0,VALID,91.3418,VALID,0,VALID,24.4818,VALID,341,VALID,0,
2010-04-23, 03:16:04,VALID,1000.67,VALID,0,VALID,91.4486,VALID,0,VALID,24.4818,VALID,341,VALID,0,
2010-04-23, 03:17:04,VALID,1000.65,VALID,0,VALID,91.2808,VALID,0,VALID,24.4623,VALID,341,VALID,0,
2010-04-23, 03:18:04,VALID,1000.64,VALID,0,VALID,91.3952,VALID,0,VALID,24.4428,VALID,341,VALID,0,
2010-04-23, 03:19:04,VALID,1000.67,VALID,0,VALID,91.5097,VALID,0,VALID,24.4428,VALID,341,VALID,0,
2010-04-23, 03:20:04,VALID,1000.67,VALID,0,VALID,91.5783,VALID,0,VALID,24.4428,VALID,341,VALID,0,
2010-04-23, 03:21:04,VALID,1000.66,VALID,0,VALID,91.4791,VALID,0,VALID,24.4037,VALID,341,VALID,0,
2010-04-23, 03:22:04,VALID,1000.65,VALID,0,VALID,91.4181,VALID,0,VALID,24.4037,VALID,341,VALID,0,
2010-04-23, 03:23:04,VALID,1000.68,VALID,0,VALID,91.2655,VALID,0,VALID,24.3647,VALID,341,VALID,0,
2010-04-23, 03:24:04,VALID,1000.65,VALID,0,VALID,91.174,VALID,0,VALID,24.3257,VALID,341,VALID,0,
2010-04-23, 03:25:04,VALID,1000.64,VALID,0,VALID,91.174,VALID,0,VALID,24.2866,VALID,341,VALID,0,
2010-04-23, 03:26:04,VALID,1000.64,VALID,0,VALID,91.1816,VALID,0,VALID,24.2671,VALID,341,VALID,0,
2010-04-23, 03:27:04,VALID,1000.61,VALID,0,VALID,91.3647,VALID,0,VALID,24.2671,VALID,341,VALID,0,
2010-04-23, 03:28:04,VALID,1000.61,VALID,0,VALID,91.502,VALID,0,VALID,24.2476,VALID,341,VALID,0,
2010-04-23, 03:29:04,VALID,1000.61,VALID,0,VALID,91.6775,VALID,0,VALID,24.2671,VALID,341,VALID,0,
2010-04-23, 03:30:04,VALID,1000.59,VALID,0,VALID,91.6623,VALID,0,VALID,24.2671,VALID,341,VALID,0,
2010-04-23, 03:31:04,VALID,1000.59,VALID,0,VALID,91.8072,VALID,0,VALID,24.2458,VALID,341,VALID,0,
2010-04-23, 03:32:04,VALID,1000.58,VALID,0,VALID,91.9751,VALID,0,VALID,24.3062,VALID,341,VALID,0,
2010-04-23, 03:33:04,VALID,1000.56,VALID,0,VALID,91.9598,VALID,0,VALID,24.3062,VALID,341,VALID,0,
2010-04-23, 03:34:04,VALID,1000.59,VALID,0,VALID,92.0819,VALID,0,VALID,24.3452,VALID,341,VALID,0,
2010-04-23, 03:35:04,VALID,1000.57,VALID,0,VALID,91.7843,VALID,0,VALID,24.3257,VALID,341,VALID,0,
2010-04-23, 03:36:04,VALID,1000.58,VALID,0,VALID,91.1282,VALID,0,VALID,24.2476,VALID,342,VALID,0,
2010-04-23, 03:37:04,VALID,1000.6,VALID,0,VALID,91.174,VALID,0,VALID,24.1677,VALID,23,VALID,0,
2010-04-23, 03:38:04,VALID,1000.61,VALID,0,VALID,91.0977,VALID,0,VALID,24.1305,VALID,23,VALID,0,
2010-04-23, 03:39:04,VALID,1000.62,VALID,0,VALID,91.2426,VALID,0,VALID,24.0915,VALID,23,VALID,0,
2010-04-23, 03:40:04,VALID,1000.64,VALID,0,VALID,91.586,VALID,0,VALID,24.0915,VALID,23,VALID,0,
2010-04-23, 03:41:04,VALID,1000.64,VALID,0,VALID,91.6241,VALID,0,VALID,24.0525,VALID,23,VALID,0,
2010-04-23, 03:42:04,VALID,1000.65,VALID,0,VALID,91.708,VALID,0,VALID,24.0525,VALID,23,VALID,0,
2010-04-23, 03:43:04,VALID,1000.66,VALID,0,VALID,91.8835,VALID,0,VALID,24.0329,VALID,23,VALID,0,
2010-04-23, 03:44:04,VALID,1000.61,VALID,0,VALID,92.0285,VALID,0,VALID,24.0329,VALID,23,VALID,0,
2010-04-23, 03:45:04,VALID,1000.63,VALID,0,VALID,92.0895,VALID,0,VALID,24.0329,VALID,23,VALID,0,
2010-04-23, 03:46:04,VALID,1000.64,VALID,0,VALID,92.0819,VALID,0,VALID,24.0329,VALID,23,VALID,0,
2010-04-23, 03:47:04,VALID,1000.61,VALID,0,VALID,92.0437,VALID,0,VALID,23.9939,VALID,23,VALID,0,
2010-04-23, 03:48:04,VALID,1000.6,VALID,0,VALID,92.0285,VALID,0,VALID,23.9549,VALID,23,VALID,0,
2010-04-23, 03:49:04,VALID,1000.61,VALID,0,VALID,92.1353,VALID,0,VALID,23.9549,VALID,23,VALID,0,
2010-04-23, 03:50:04,VALID,1000.6,VALID,0,VALID,92.2192,VALID,0,VALID,23.9354,VALID,23,VALID,0,
2010-04-23, 03:51:04,VALID,1000.56,VALID,0,VALID,92.265,VALID,0,VALID,23.9354,VALID,23,VALID,0,
2010-04-23, 03:52:04,VALID,1000.55,VALID,0,VALID,92.3413,VALID,0,VALID,23.9354,VALID,23,VALID,0,
2010-04-23, 03:53:04,VALID,1000.52,VALID,0,VALID,92.3489,VALID,0,VALID,23.9159,VALID,23,VALID,0,
2010-04-23, 03:54:04,VALID,1000.52,VALID,0,VALID,92.3794,VALID,0,VALID,23.8963,VALID,23,VALID,0,
2010-04-23, 03:55:04,VALID,1000.51,VALID,0,VALID,92.5397,VALID,0,VALID,23.9354,VALID,23,VALID,0,